Location: Newark
(42.7133°N, 87.7910°W)
Time: 02:55:32
(UTC+00:00)

A-11 Canister half - Pass Details

Date: 30 September 2019
Orbit: 1527 x 1682 km, 47.3° (Epoch: 18 October)

Event Time Altitude Azimuth Distance (km) Brightness Sun altitude
Exits shadow 06:53:06 30° 79° (E) 2,480 10.2 -46.9°
Drops below altitude 10° 06:57:28 10° 68° (ENE) 3,749 11.4 -46.5°
Sets 07:00:37 0° 64° (ENE) 4,753 12.1 -46.3°
